FW7705 Weather Reports


Display with metric or nautical units.
time (UTC)temp
F
wind
direction
speed
MPH
gust
MPH
rain 1hr
in
rain 24hr
in
rain mn
in
humidity
%
barometer
mb
20260506045006 48 56 0.0 0.0 0.00 0.00 0.00 94 1008.9
20260506044504 48 56 1.0 1.0 0.00 0.00 0.00 94 1008.9
20260506044000 48 56 0.0 0.0 0.00 0.00 0.00 94 1009.1
20260506043457 48 56 0.0 1.0 0.00 0.00 0.00 93 1009.0
20260506042955 49 56 0.0 0.0 0.00 0.00 0.00 91 1009.0
20260506042454 50 56 0.0 0.0 0.00 0.00 0.00 90 1008.9
20260506041951 50 56 0.0 0.0 0.00 0.00 0.00 89 1008.8
20260506041450 50 56 0.0 0.0 0.00 0.00 0.00 89 1008.9
20260506040947 50 56 0.0 0.0 0.00 0.00 0.00 89 1008.8
20260506040444 51 55 0.0 0.0 0.00 0.00 0.00 88 1008.9
20260506035939 51 57 1.0 1.0 0.00 0.26 0.26 88 1009.0
20260506035437 51 60 0.0 1.0 0.00 0.26 0.26 88 1008.6
20260506034934 51 45 0.0 1.0 0.00 0.26 0.26 89 1009.0
20260506034431 51 50 1.0 2.0 0.00 0.26 0.26 90 1009.1
20260506033928 51 74 0.0 0.0 0.00 0.26 0.26 90 1009.3
20260506033425 51 77 0.0 1.0 0.00 0.26 0.26 90 1009.3
20260506032922 50 31 1.0 1.0 0.00 0.26 0.26 90 1009.4
20260506032419 51 62 0.0 0.0 0.00 0.26 0.26 90 1009.7
20260506031916 51 61 0.0 0.0 0.00 0.26 0.26 89 1009.3
20260506031414 51 69 1.0 1.0 0.00 0.26 0.26 89 1009.3
20260506030911 51 70 0.0 0.0 0.00 0.26 0.26 88 1009.1
20260506030409 52 27 2.0 3.0 0.00 0.26 0.26 88 1009.3
20260506025906 52 31 2.0 3.0 0.00 0.26 0.26 88 1009.5
20260506025403 52 39 1.0 2.0 0.00 0.26 0.26 88 1009.4
20260506024859 52 8 2.0 3.0 0.00 0.26 0.26 88 1009.3
20260506024356 52 33 1.0 2.0 0.00 0.26 0.26 88 1009.3
20260506023851 52 40 2.0 2.0 0.00 0.26 0.26 88 1009.4
20260506023349 52 16 3.0 3.0 0.00 0.26 0.26 87 1009.6
20260506022845 52 46 1.0 1.0 0.00 0.26 0.26 87 1009.7
20260506022344 52 23 2.0 3.0 0.00 0.26 0.26 87 1009.5
20260506021841 53 38 1.0 1.0 0.00 0.26 0.26 87 1009.9
20260506021337 53 20 1.0 1.0 0.00 0.26 0.26 87 1009.7
20260506020834 53 38 1.0 1.0 0.00 0.26 0.26 86 1009.8
20260506020332 53 39 3.0 3.0 0.00 0.26 0.26 85 1009.6
20260506015829 53 28 1.0 1.0 0.00 0.26 0.26 85 1009.7
20260506015327 53 15 2.0 2.0 0.00 0.26 0.26 85 1009.1
20260506014823 53 34 4.0 4.0 0.00 0.26 0.26 84 1009.1
20260506014320 54 356 4.0 6.0 0.00 0.26 0.26 83 1009.0
20260506013817 54 19 5.0 6.0 0.00 0.26 0.26 82 1008.9
20260506013314 55 21 9.0 10.0 0.00 0.26 0.26 81 1009.0
20260506012811 55 63 3.0 3.0 0.00 0.26 0.26 84 1008.7
20260506012308 56 22 5.0 7.0 0.00 0.26 0.26 85 1008.6
20260506011805 57 28 5.0 7.0 0.00 0.26 0.26 86 1008.4
20260506011301 58 8 7.0 8.0 0.00 0.26 0.26 86 1008.1
20260506010759 58 347 6.0 9.0 0.00 0.26 0.26 88 1008.1
20260506010257 58 39 5.0 7.0 0.00 0.26 0.26 88 1008.0
20260506005754 59 322 6.0 7.0 0.00 0.26 0.26 88 1008.1
20260506005250 59 357 6.0 8.0 0.00 0.26 0.26 87 1008.1
20260506004746 59 24 6.0 8.0 0.00 0.26 0.26 87 1008.1
20260506004244 59 268 4.0 7.0 0.00 0.26 0.26 86 1008.0
20260506003740 59 342 3.0 3.0 0.00 0.26 0.26 85 1008.0
20260506003236 60 331 5.0 6.0 0.00 0.26 0.26 85 1007.9
20260506002733 60 265 5.0 6.0 0.00 0.26 0.26 84 1007.8
20260506002229 60 310 2.0 2.0 0.00 0.26 0.26 84 1007.7
20260506001725 60 308 1.0 1.0 0.00 0.26 0.26 84 1007.5
20260506001223 60 321 3.0 3.0 0.00 0.26 0.26 85 1007.5
20260506000719 60 330 3.0 3.0 0.00 0.26 0.26 88 1007.3
20260506000219 60 359 4.0 4.0 0.00 0.26 0.26 89 1007.5
20260505235714 60 111 0.0 0.0 0.00 0.26 0.26 90 1007.3
20260505235212 60 111 0.0 0.0 0.00 0.26 0.26 90 1007.1
20260505234708 60 111 0.0 0.0 0.00 0.26 0.26 90 1007.1
20260505234206 60 135 1.0 1.0 0.00 0.26 0.26 90 1007.1
20260505233702 60 135 1.0 1.0 0.00 0.26 0.26 90 1007.0
20260505233200 60 135 2.0 2.0 0.00 0.26 0.26 90 1006.9
20260505232657 60 134 1.0 2.0 0.00 0.26 0.26 91 1006.9
20260505232155 60 134 2.0 2.0 0.00 0.26 0.26 91 1006.9
20260505231651 60 134 2.0 2.0 0.00 0.26 0.26 91 1006.9
20260505231150 61 134 0.0 1.0 0.00 0.26 0.26 90 1006.9
20260505230648 61 141 2.0 2.0 0.00 0.26 0.26 89 1006.8
20260505230144 62 162 0.0 0.0 0.00 0.26 0.26 87 1006.9
20260505225635 62 183 2.0 3.0 0.00 0.26 0.26 84 1006.7
20260505225131 62 190 0.0 1.0 0.05 0.26 0.26 82 1006.9
20260505224628 63 247 2.0 3.0 0.05 0.26 0.26 82 1007.2
20260505224126 63 160 1.0 1.0 0.00 0.25 0.25 82 1007.4
20260505223623 63 158 0.0 1.0 0.00 0.25 0.25 82 1007.1
20260505223119 63 133 1.0 1.0 0.00 0.25 0.25 82 1006.9
20260505222615 63 139 4.0 7.0 0.00 0.25 0.25 82 1007.0
20260505222112 64 142 4.0 4.0 0.00 0.25 0.25 79 1006.7
20260505221609 64 168 1.0 1.0 0.00 0.25 0.25 78 1006.4
20260505221105 64 169 1.0 1.0 0.00 0.25 0.25 76 1006.3
20260505220602 65 151 2.0 2.0 0.00 0.25 0.25 75 1006.4
20260505220100 65 150 1.0 1.0 0.00 0.25 0.25 76 1006.4
20260505215557 65 171 1.0 2.0 0.00 0.25 0.25 78 1006.3
20260505215055 65 205 3.0 3.0 0.00 0.25 0.25 75 1006.2
20260505214553 66 243 3.0 3.0 0.00 0.25 0.25 75 1006.3
20260505214049 66 179 1.0 2.0 0.00 0.25 0.25 75 1006.0
20260505213547 66 149 1.0 1.0 0.00 0.25 0.25 75 1006.0
20260505213043 67 143 1.0 2.0 0.00 0.25 0.25 76 1006.0
20260505212540 66 200 0.0 1.0 0.00 0.25 0.25 77 1005.7
20260505212037 66 172 1.0 1.0 0.00 0.25 0.25 77 1005.7
20260505211534 65 134 2.0 2.0 0.00 0.25 0.25 78 1005.7
20260505211031 64 166 0.0 0.0 0.00 0.25 0.25 82 1005.8
20260505210528 64 166 0.0 1.0 0.00 0.25 0.25 80 1005.9
20260505210025 64 266 2.0 2.0 0.00 0.25 0.25 79 1005.7
20260505205523 63 133 1.0 2.0 0.00 0.25 0.25 81 1005.9
20260505205020 63 121 0.0 1.0 0.00 0.25 0.25 82 1005.8
20260505204518 62 155 0.0 1.0 0.00 0.25 0.25 82 1005.8
20260505204015 61 214 1.0 1.0 0.00 0.25 0.25 86 1006.0
20260505203511 60 326 1.0 2.0 0.00 0.25 0.25 84 1006.2
20260505203008 60 332 0.0 0.0 0.00 0.25 0.25 86 1006.3
20260505202504 60 332 0.0 1.0 0.00 0.25 0.25 86 1006.7
20260505202000 60 227 1.0 1.0 0.00 0.25 0.25 86 1006.8
20260505201457 60 227 0.0 0.0 0.07 0.25 0.25 88 1006.9
20260505200955 60 240 2.0 2.0 0.07 0.25 0.25 88 1007.0
20260505200453 59 215 1.0 2.0 0.12 0.25 0.25 88 1007.3
20260505195948 59 244 2.0 2.0 0.19 0.24 0.24 88 1007.2
20260505195445 60 231 4.0 4.0 0.12 0.22 0.22 87 1007.9
20260505194943 60 260 9.0 11.0 0.05 0.21 0.21 86 1007.8
20260505194440 60 247 6.0 8.0 0.12 0.20 0.20 84 1007.5
20260505193940 61 296 3.0 3.0 0.31 0.20 0.20 82 1007.3
20260505193438 64 326 8.0 9.0 0.19 0.18 0.18 73 1007.0
20260505192935 70 270 13.0 17.0 0.00 0.15 0.15 55 1006.4
20260505192433 71 229 3.0 4.0 0.00 0.15 0.15 45 1005.6
20260505191931 72 257 6.0 9.0 0.00 0.15 0.15 43 1005.3
20260505191430 72 176 5.0 8.0 0.00 0.15 0.15 43 1004.8
20260505190926 72 297 10.0 15.0 0.00 0.15 0.15 45 1004.8
20260505190421 72 216 4.0 4.0 0.00 0.15 0.15 45 1004.9
20260505185916 73 236 6.0 10.0 0.00 0.15 0.15 46 1004.7
20260505185414 73 72 2.0 3.0 0.00 0.15 0.15 48 1004.7
20260505184910 73 222 9.0 11.0 0.00 0.15 0.15 47 1004.8
20260505184407 73 222 3.0 3.0 0.00 0.15 0.15 54 1004.7
20260505183904 73 316 3.0 3.0 0.00 0.15 0.15 50 1004.7
20260505183401 73 191 7.0 9.0 0.00 0.15 0.15 48 1004.7
20260505182857 73 114 6.0 9.0 0.00 0.15 0.15 50 1004.9
20260505182354 73 215 3.0 3.0 0.00 0.15 0.15 54 1004.9
20260505181851 72 169 4.0 6.0 0.00 0.15 0.15 61 1005.0
20260505181348 71 222 2.0 3.0 0.00 0.15 0.15 68 1005.2
20260505180845 70 221 2.0 3.0 0.00 0.15 0.15 66 1005.3
20260505180341 68 175 2.0 2.0 0.00 0.15 0.15 69 1005.4
20260505175838 67 219 5.0 6.0 0.00 0.15 0.15 72 1005.8
20260505175334 65 206 2.0 4.0 0.00 0.15 0.15 77 1005.9
20260505174831 63 216 3.0 4.0 0.00 0.15 0.15 80 1005.9
20260505174328 61 105 2.0 3.0 0.42 0.15 0.15 88 1005.8
20260505173824 61 252 3.0 4.0 0.90 0.15 0.15 83 1006.1
20260505173320 65 194 6.0 7.0 0.47 0.08 0.08 68 1006.1
20260505172818 71 162 4.0 7.0 0.00 0.00 0.00 52 1006.1
20260505172316 71 254 3.0 4.0 0.00 0.00 0.00 49 1005.8
20260505171815 71 250 6.0 7.0 0.00 0.00 0.00 46 1006.0
20260505171313 72 171 2.0 2.0 0.00 0.00 0.00 46 1005.8
20260505170808 72 221 5.0 7.0 0.00 0.00 0.00 43 1005.9
20260505170306 73 228 6.0 8.0 0.00 0.00 0.00 43 1005.7
20260505165801 74 226 5.0 7.0 0.00 0.00 0.00 42 1005.7
20260505165257 74 217 10.0 11.0 0.00 0.00 0.00 40 1005.3
20260505164753 74 196 10.0 15.0 0.00 0.00 0.00 44 1005.4
20260505164250 74 220 9.0 10.0 0.00 0.00 0.00 42 1005.2
20260505163748 75 293 5.0 8.0 0.00 0.00 0.00 43 1005.4
20260505163247 75 245 7.0 9.0 0.00 0.00 0.00 43 1005.5
20260505162744 75 185 6.0 8.0 0.00 0.00 0.00 43 1005.4
20260505162241 75 289 9.0 14.0 0.00 0.00 0.00 43 1005.5
20260505161737 75 203 3.0 3.0 0.00 0.00 0.00 47 1005.9
20260505161235 75 241 5.0 7.0 0.00 0.00 0.00 44 1005.9
20260505160732 74 235 6.0 8.0 0.00 0.00 0.00 44 1005.8
20260505160230 74 238 4.0 4.0 0.00 0.00 0.00 44 1005.8
20260505153209 74 212 4.0 4.0 0.00 0.00 0.00 46 1006.3
20260505152706 74 257 4.0 6.0 0.00 0.00 0.00 46 1006.0
20260505152202 73 216 4.0 6.0 0.00 0.00 0.00 48 1005.9
20260505151657 74 325 6.0 8.0 0.00 0.00 0.00 48 1005.8
20260505151155 73 201 3.0 3.0 0.00 0.00 0.00 49 1005.9
20260505150651 72 146 1.0 2.0 0.00 0.00 0.00 48 1005.8
20260505150149 72 234 12.0 23.0 0.00 0.00 0.00 47 1005.5
20260505140622 69 210 8.0 14.0 0.00 0.00 0.00 52 1006.1
20260505140119 69 216 5.0 8.0 0.00 0.00 0.00 52 1006.1
20260505125036 63 168 2.0 3.0 0.00 0.00 0.00 62 1006.7
20260505124532 62 218 4.0 6.0 0.00 0.00 0.00 62 1006.9
20260505124028 62 153 4.0 6.0 0.00 0.00 0.00 64 1006.9
20260505123525 62 148 2.0 3.0 0.00 0.00 0.00 65 1007.0
20260505123021 62 159 0.0 0.0 0.00 0.00 0.00 67 1007.3
20260505122519 61 184 3.0 3.0 0.00 0.00 0.00 65 1007.0
20260505122015 61 142 0.0 1.0 0.00 0.00 0.00 65 1007.0
20260505121512 61 145 2.0 2.0 0.00 0.00 0.00 65 1007.0
20260505121009 61 174 1.0 1.0 0.00 0.00 0.00 64 1007.0
20260505120505 61 159 0.0 1.0 0.00 0.00 0.00 65 1006.9
20260505120005 61 142 1.0 1.0 0.00 0.00 0.00 64 1006.8
20260505115500 61 123 3.0 4.0 0.00 0.00 0.00 64 1006.8
20260505114958 61 221 0.0 0.0 0.00 0.00 0.00 65 1007.0
20260505114454 60 133 1.0 2.0 0.00 0.00 0.00 63 1007.0
20260505113952 60 167 3.0 4.0 0.00 0.00 0.00 63 1006.9
20260505113448 60 161 1.0 1.0 0.00 0.00 0.00 66 1006.8
20260505112943 59 155 2.0 3.0 0.00 0.00 0.00 66 1006.9
20260505112441 59 117 1.0 2.0 0.00 0.00 0.00 65 1006.8
20260505111938 59 87 1.0 2.0 0.00 0.00 0.00 66 1007.2
20260505111432 59 145 0.0 1.0 0.00 0.00 0.00 67 1007.0
20260505110929 59 173 1.0 1.0 0.00 0.00 0.00 68 1006.8
20260505110425 59 173 1.0 2.0 0.00 0.00 0.00 67 1006.9
20260505101856 59 189 1.0 2.0 0.00 0.00 0.00 64 1007.0
20260505101351 58 183 0.0 1.0 0.00 0.00 0.00 64 1006.9
20260505100847 58 165 2.0 4.0 0.00 0.00 0.00 64 1006.5
20260505100344 58 175 1.0 1.0 0.00 0.00 0.00 65 1006.5
20260505095840 58 158 1.0 1.0 0.00 0.00 0.00 64 1006.3
20260505095337 57 177 2.0 2.0 0.00 0.00 0.00 65 1006.2
20260505094833 57 125 0.0 1.0 0.00 0.00 0.00 65 1006.3
20260505094331 57 159 0.0 1.0 0.00 0.00 0.00 66 1006.3
20260505093826 57 166 1.0 2.0 0.00 0.00 0.00 65 1006.2
20260505093324 57 189 1.0 1.0 0.00 0.00 0.00 64 1006.1
20260505092820 57 146 1.0 1.0 0.00 0.00 0.00 64 1006.1
20260505092319 57 153 1.0 1.0 0.00 0.00 0.00 64 1005.9
20260505091816 57 107 1.0 2.0 0.00 0.00 0.00 65 1005.9
20260505091314 57 129 3.0 3.0 0.00 0.00 0.00 65 1005.9
20260505090811 57 108 1.0 1.0 0.00 0.00 0.00 65 1005.8
20260505090309 57 144 1.0 1.0 0.00 0.00 0.00 65 1006.0
20260505085806 57 94 2.0 2.0 0.00 0.00 0.00 64 1006.0
20260505085305 57 156 2.0 2.0 0.00 0.00 0.00 64 1005.9
20260505084801 57 138 1.0 1.0 0.00 0.00 0.00 63 1005.9
20260505084300 58 141 0.0 0.0 0.00 0.00 0.00 62 1005.9
20260505083757 58 132 0.0 1.0 0.00 0.00 0.00 62 1005.8
20260505083253 58 131 1.0 2.0 0.00 0.00 0.00 62 1005.7
20260505082750 58 131 2.0 2.0 0.00 0.00 0.00 62 1006.0
20260505082247 58 111 2.0 3.0 0.00 0.00 0.00 62 1005.8
20260505081743 57 128 1.0 2.0 0.00 0.00 0.00 62 1005.9
20260505081240 58 140 1.0 1.0 0.00 0.00 0.00 62 1005.8
20260505080737 58 115 1.0 2.0 0.00 0.00 0.00 62 1005.9
20260505080232 58 165 3.0 3.0 0.00 0.00 0.00 61 1005.8
20260505075728 58 134 1.0 1.0 0.00 0.00 0.00 61 1005.8
20260505075226 58 100 2.0 2.0 0.00 0.00 0.00 60 1005.8
20260505074723 59 158 2.0 2.0 0.00 0.00 0.00 60 1005.9
20260505074220 59 134 1.0 1.0 0.00 0.00 0.00 59 1006.1
20260505073718 59 147 0.0 0.0 0.00 0.00 0.00 58 1005.7
20260505073215 59 129 1.0 1.0 0.00 0.00 0.00 59 1006.0
20260505072711 58 155 1.0 1.0 0.00 0.00 0.00 59 1006.0
20260505072208 58 118 2.0 2.0 0.00 0.00 0.00 59 1005.9
20260505071703 59 116 1.0 1.0 0.00 0.00 0.00 59 1005.9
20260505071201 59 161 1.0 2.0 0.00 0.00 0.00 58 1006.0
20260505070658 59 189 3.0 4.0 0.00 0.00 0.00 59 1005.9
20260505070154 58 210 1.0 2.0 0.00 0.00 0.00 59 1005.9
20260505065650 59 102 0.0 0.0 0.00 0.00 0.00 59 1005.9
20260505065147 58 162 1.0 2.0 0.00 0.00 0.00 58 1006.1
20260505064644 58 140 4.0 7.0 0.00 0.00 0.00 59 1005.9
20260505064142 57 158 2.0 2.0 0.00 0.00 0.00 60 1006.0
20260505063640 57 145 0.0 0.0 0.00 0.00 0.00 60 1006.1
20260505063136 57 152 0.0 1.0 0.00 0.00 0.00 59 1006.1
20260505062632 57 129 1.0 1.0 0.00 0.00 0.00 59 1006.0
20260505062129 58 129 0.0 1.0 0.00 0.00 0.00 59 1006.0
20260505061626 57 130 2.0 2.0 0.00 0.00 0.00 59 1005.9
20260505061124 57 191 2.0 2.0 0.00 0.00 0.00 60 1005.9
20260505060622 57 149 0.0 0.0 0.00 0.00 0.00 60 1006.1
20260505060119 57 70 0.0 1.0 0.00 0.00 0.00 59 1006.0
20260505055614 57 146 1.0 1.0 0.00 0.00 0.00 59 1005.9
20260505055110 58 134 1.0 1.0 0.00 0.00 0.00 59 1006.0
20260505054608 58 116 1.0 1.0 0.00 0.00 0.00 58 1006.1
20260505054106 58 130 2.0 2.0 0.00 0.00 0.00 58 1006.1
20260505053603 58 137 1.0 1.0 0.00 0.00 0.00 57 1006.0
20260505053059 58 144 3.0 4.0 0.00 0.00 0.00 56 1006.2
20260505052556 59 125 0.0 1.0 0.00 0.00 0.00 57 1006.2
20260505052054 58 175 2.0 3.0 0.00 0.00 0.00 56 1006.0
20260505051551 58 144 0.0 1.0 0.00 0.00 0.00 57 1006.3
20260505051049 58 149 2.0 2.0 0.00 0.00 0.00 57 1006.1
20260505050546 58 140 1.0 2.0 0.00 0.00 0.00 58 1006.4